Pittsburgh, PA

10:06 PM EST on February 09, 2016 (GMT -0500)
Pittsburgh International

Weather History for KPIT - April, 2013

Change the Weather History Date:

Tuesday, April 23, 2013

  Actual Average Record
Temperature  
Mean Temperature 55 °F 54 °F  
Max Temperature 70 °F 65 °F 89 °F (1885)
Min Temperature 40 °F 43 °F 26 °F (1936)
Degree Days  
Heating Degree Days 10 12  
Month to date heating degree days 311 355  
Since 1 July heating degree days 5317 5400  
Cooling Degree Days 0 0  
Month to date cooling degree days 17 0  
Year to date cooling degree days 17 1  
Growing Degree Days 4 (Base 50)    
Moisture  
Dew Point 32 °F    
Average Humidity 46    
Maximum Humidity 67    
Minimum Humidity 25    
Precipitation  
Precipitation 0.00 in 0.10 in 1.25 in (1987)
Month to date precipitation 2.47 2.39  
Year to date precipitation 9.21 10.43  
Snow  
Snow 0.00 in 0.00 in 0.50 in (1956)
Month to date snowfall T 1.4  
Since 1 July snowfall 57.4 41.8  
Snow Depth 0.00 in    
Sea Level Pressure  
Sea Level Pressure 30.15 in    
Wind  
Wind Speed 6 mph (SE)    
Max Wind Speed 12 mph    
Max Gust Speed 20 mph    
Visibility 10 miles    
Events      
T = Trace of Precipitation, MM = Missing Value Source: NWS Daily Summary

Daily Weather History Graph

Daily Weather History Graph

Search for Another Location

Airport or City:

Trip Planner

Search our weather history database for the weather conditions in past years. The results will help you decide how hot, cold, wet, or windy it might be!

Date:

Astronomy

Apr. 23, 2013 Rise Set
Actual Time 6:30 AM EDT 8:08 PM EDT
Civil Twilight 6:01 AM EDT 8:37 PM EDT
Nautical Twilight 5:26 AM EDT 9:12 PM EDT
Astronomical Twilight 4:49 AM EDT 9:50 PM EDT
Moon 6:01 PM EDT (4/23) 4:58 AM EDT (4/23)
Length of Visible Light 14h 36m
Length of Day
13h 38m
Waxing Gibbous, 94% of the Moon is Illuminated
Apr 23
Waxing Gibbous
Apr 25
Full
May 2
Last Quarter
May 9
New
May 18
First Quarter

Hourly Weather History & Observations

Time (EDT) Temp. Windchill Dew Point Humidity Pressure Visibility Wind Dir Wind Speed Gust Speed Precip Events Conditions
12:51 AM 48.0 °F - 28.0 °F 46% 30.29 in 10.0 mi SE 10.4 mph - N/A   Clear
1:51 AM 46.9 °F - 28.9 °F 50% 30.28 in 10.0 mi ESE 9.2 mph - N/A   Clear
2:51 AM 43.0 °F 38.8 °F 28.9 °F 58% 30.28 in 10.0 mi ESE 6.9 mph - N/A   Clear
3:51 AM 43.0 °F 38.8 °F 30.0 °F 60% 30.27 in 10.0 mi ESE 6.9 mph - N/A   Clear
4:51 AM 43.0 °F 38.8 °F 30.0 °F 60% 30.26 in 10.0 mi ESE 6.9 mph - N/A   Clear
5:51 AM 42.1 °F 37.7 °F 30.9 °F 65% 30.26 in 10.0 mi ESE 6.9 mph - N/A   Clear
6:51 AM 41.0 °F 38.0 °F 30.9 °F 67% 30.26 in 10.0 mi ESE 4.6 mph - N/A   Clear
7:51 AM 43.0 °F 38.8 °F 32.0 °F 65% 30.25 in 10.0 mi ESE 6.9 mph - N/A   Clear
8:51 AM 46.9 °F - 32.0 °F 56% 30.23 in 10.0 mi SE 9.2 mph - N/A   Partly Cloudy
9:51 AM 51.1 °F - 33.1 °F 50% 30.23 in 10.0 mi Calm Calm - N/A   Partly Cloudy
10:51 AM 55.0 °F - 33.1 °F 43% 30.21 in 10.0 mi Variable 3.5 mph - N/A   Partly Cloudy
11:51 AM 60.1 °F - 32.0 °F 35% 30.21 in 10.0 mi Calm Calm - N/A   Scattered Clouds
12:51 PM 63.0 °F - 33.1 °F 33% 30.17 in 10.0 mi Calm Calm - N/A   Scattered Clouds
1:51 PM 66.0 °F - 33.1 °F 29% 30.13 in 10.0 mi SE 4.6 mph - N/A   Mostly Cloudy
2:51 PM 68.0 °F - 33.1 °F 27% 30.10 in 10.0 mi SSW 8.1 mph - N/A   Scattered Clouds
3:51 PM 70.0 °F - 33.1 °F 26% 30.06 in 10.0 mi South 8.1 mph - N/A   Scattered Clouds
4:51 PM 70.0 °F - 32.0 °F 25% 30.05 in 10.0 mi SE 9.2 mph - N/A   Mostly Cloudy
5:51 PM 69.1 °F - 32.0 °F 25% 30.04 in 10.0 mi SSE 5.8 mph - N/A   Overcast
6:51 PM 69.1 °F - 33.1 °F 26% 30.03 in 10.0 mi SE 9.2 mph - N/A   Overcast
7:51 PM 66.9 °F - 32.0 °F 27% 30.02 in 10.0 mi SE 6.9 mph - N/A   Overcast
8:51 PM 64.9 °F - 32.0 °F 29% 30.01 in 10.0 mi SE 6.9 mph - N/A   Overcast
9:51 PM 63.0 °F - 32.0 °F 31% 30.01 in 10.0 mi SSE 3.5 mph - N/A   Overcast
10:51 PM 61.0 °F - 33.1 °F 35% 29.99 in 10.0 mi SSE 4.6 mph - N/A   Clear
11:51 PM 61.0 °F - 34.0 °F 36% 29.97 in 10.0 mi SE 8.1 mph - N/A   Mostly Cloudy